2023/09/02 00:00:00,18.4,22.1
2023/09/02 00:10:00,23.6,22.2
2023/09/02 00:20:00,22.3,21.9
2023/09/02 00:30:00,32.8,22.2
2023/09/02 00:40:00,33.3,22.0
2023/09/02 00:50:00,33.3,22.0
2023/09/02 01:00:00,33.1,22.0
2023/09/02 01:10:00,33.0,22.0
2023/09/02 01:20:00,33.1,21.8
2023/09/02 01:30:00,33.0,21.9
2023/09/02 01:40:00,32.9,21.8
2023/09/02 01:50:00,32.9,21.9
2023/09/02 02:00:00,33.1,21.9
2023/09/02 02:10:00,33.2,21.7
2023/09/02 02:20:00,32.9,21.5
2023/09/02 02:30:00,33.1,21.4
2023/09/02 02:40:00,32.5,21.5
2023/09/02 02:50:00,32.4,21.5
2023/09/02 03:00:00,33.4,21.7
2023/09/02 03:10:00,33.4,21.5
2023/09/02 03:20:00,33.2,21.5
2023/09/02 03:30:00,33.6,21.5
2023/09/02 03:40:00,33.3,21.4
2023/09/02 03:50:00,33.4,21.5
2023/09/02 04:00:00,33.9,21.5
2023/09/02 04:10:00,33.9,21.4
2023/09/02 04:20:00,34.3,21.3
2023/09/02 04:30:00,33.5,21.2
2023/09/02 04:40:00,33.9,21.3
2023/09/02 04:50:00,34.3,20.8
2023/09/02 05:00:00,33.9,21.3
2023/09/02 05:10:00,34.3,21.4
2023/09/02 05:20:00,34.1,21.2
2023/09/02 05:30:00,34.6,21.2
2023/09/02 05:40:00,34.8,21.4
2023/09/02 05:50:00,34.5,21.2
2023/09/02 06:00:00,34.6,21.1
2023/09/02 06:10:00,34.7,21.3
2023/09/02 06:20:00,34.7,21.5
2023/09/02 06:30:00,35.3,21.5
2023/09/02 06:40:00,35.3,21.4
2023/09/02 06:50:00,35.3,21.7
2023/09/02 07:00:00,35.7,21.9
2023/09/02 07:10:00,35.6,22.0
2023/09/02 07:20:00,35.7,22.2
2023/09/02 07:30:00,35.7,22.9
2023/09/02 07:40:00,35.8,23.1
2023/09/02 07:50:00,35.9,23.3
2023/09/02 08:00:00,36.4,23.9
2023/09/02 08:10:00,36.4,24.2
2023/09/02 08:20:00,36.6,24.2
2023/09/02 08:30:00,36.2,24.7
2023/09/02 08:40:00,35.3,24.7
2023/09/02 08:50:00,---,25.1
2023/09/02 09:00:00,31.3,25.7
2023/09/02 09:10:00,23.2,25.8
2023/09/02 09:20:00,---,25.7
2023/09/02 09:30:00, 8.5,26.1
2023/09/02 09:40:00,29.2,26.2
2023/09/02 09:50:00,34.0,26.2
2023/09/02 10:00:00,33.3,26.5
2023/09/02 10:10:00,32.3,26.8
2023/09/02 10:20:00,23.7,26.5
2023/09/02 10:30:00,11.7,26.8
2023/09/02 10:40:00,15.1,26.8
2023/09/02 10:50:00, 7.0,26.7
2023/09/02 11:00:00,15.7,27.3
2023/09/02 11:10:00,19.6,27.2
2023/09/02 11:20:00,17.4,27.2
2023/09/02 11:30:00,12.4,28.6
2023/09/02 11:40:00,15.9,27.6
2023/09/02 11:50:00, 6.9,27.6
2023/09/02 12:00:00,13.9,28.9
2023/09/02 12:10:00,17.4,28.7
2023/09/02 12:20:00,23.5,27.8
2023/09/02 12:30:00,19.9,27.6
2023/09/02 12:40:00,14.6,27.4
2023/09/02 12:50:00,17.2,27.7
2023/09/02 13:00:00,18.3,27.3
2023/09/02 13:10:00,24.3,27.5
2023/09/02 13:20:00,13.8,27.5
2023/09/02 13:30:00, 9.1,27.6
2023/09/02 13:40:00,24.6,27.4
2023/09/02 13:50:00,---,27.7
2023/09/02 14:00:00,17.4,27.2
2023/09/02 14:10:00,21.4,27.2
2023/09/02 14:20:00,26.2,27.1
2023/09/02 14:30:00,---,27.0
2023/09/02 14:40:00,---,26.8
2023/09/02 14:50:00,23.4,26.8
2023/09/02 15:00:00,18.4,26.8
2023/09/02 15:10:00,22.7,26.6
2023/09/02 15:20:00,28.0,26.7
2023/09/02 15:30:00,29.3,27.0
2023/09/02 15:40:00,29.8,27.3
2023/09/02 15:50:00,29.5,27.6
2023/09/02 16:00:00,28.4,27.3
2023/09/02 16:10:00,29.3,27.2
2023/09/02 16:20:00,11.7,25.8
2023/09/02 16:30:00,23.9,26.0
2023/09/02 16:40:00,28.4,25.5
2023/09/02 16:50:00,31.2,25.1
2023/09/02 17:00:00,29.0,24.8
2023/09/02 17:10:00,31.5,24.0
2023/09/02 17:20:00,30.7,25.2
2023/09/02 17:30:00,27.9,24.4
2023/09/02 17:40:00,33.8,24.1
2023/09/02 17:50:00,34.3,24.0
2023/09/02 18:00:00,34.0,24.1
2023/09/02 18:10:00,34.0,24.1
2023/09/02 18:20:00,34.2,24.4
2023/09/02 18:30:00,34.2,23.4
2023/09/02 18:40:00,34.2,23.1
2023/09/02 18:50:00,34.6,23.2
2023/09/02 19:00:00,34.7,23.0
2023/09/02 19:10:00,34.8,22.9
2023/09/02 19:20:00,34.9,22.4
2023/09/02 19:30:00,34.8,22.5
2023/09/02 19:40:00,34.5,22.5
2023/09/02 19:50:00,34.7,22.1
2023/09/02 20:00:00,34.9,22.2
2023/09/02 20:10:00,34.8,21.9
2023/09/02 20:20:00,34.3,21.9
2023/09/02 20:30:00,34.0,21.7
2023/09/02 20:40:00,34.1,21.6
2023/09/02 20:50:00,33.4,21.5
2023/09/02 21:00:00,33.5,21.5
2023/09/02 21:10:00,33.5,21.4
2023/09/02 21:20:00,33.2,21.3
2023/09/02 21:30:00,32.7,21.2
2023/09/02 21:40:00,32.4,21.1
2023/09/02 21:50:00,32.5,21.1
2023/09/02 22:00:00,32.3,20.8
2023/09/02 22:10:00,31.7,21.0
2023/09/02 22:20:00,32.4,20.8
2023/09/02 22:30:00,31.7,20.4
2023/09/02 22:40:00,31.4,20.7
2023/09/02 22:50:00,31.5,20.7
2023/09/02 23:00:00,31.3,20.7
2023/09/02 23:10:00,31.5,20.7
2023/09/02 23:20:00,31.3,20.6
2023/09/02 23:30:00,30.8,20.6
2023/09/02 23:40:00,30.6,20.4
2023/09/02 23:50:00,30.6,20.4
